Regional Weather Roundup
Issued by NWS

Home | Current Version | Previous Version | Text Only | Print | Product List | Glossary On
Versions: 1 2 3 4 5 6 7 8 9 10 11 12 13 14 15 16 17 18 19 20 21 22 23 24 25 26 27 28 29 30 31 32 33 34 35 36 37 38 39 40 41 42 43 44 45 46 47 48 49 50
000
ASUS43 KTOP 160659
RWRKS

WEATHER ROUNDUP FOR KANSAS
NATIONAL WEATHER SERVICE GOODLAND KS
200 AM CDT TUE SEP 16 2014

NOTE:  "FAIR" INDICATES FEW OR NO CLOUDS BELOW 12,000 FEET WITH NO
SIGNIFICANT WEATHER AND/OR OBSTRUCTIONS TO VISIBILITY.

KSZ001>006-013>018-027>032-041>047-160800-
NORTHWEST KANSAS

CITY           SKY/WX    TMP DP  RH WIND       PRES   REMARKS
GOODLAND       CLOUDY    53  51  93 S10       30.27F
HAYS           CLEAR     52  43  71 E5        30.26S
HILL CITY      CLEAR     45  42  89 CALM      30.27S
RUSSELL        CLEAR     49  46  90 E7        30.25S
$$

KSZ061>065-074>080-084>089-160800-
SOUTHWEST KANSAS

CITY           SKY/WX    TMP DP  RH WIND       PRES   REMARKS
DODGE CITY     MOCLDY    56  52  86 N5        30.26F
ELKHART          N/A     59  56  90 N1          N/A
GARDEN CITY    CLOUDY    59  55  87 CALM      30.26F
GREAT BEND     CLEAR     55  48  76 E7        30.26S
LIBERAL        CLOUDY    61  54  77 E5        30.28F
$$

KSZ066>073-081>083-090>101-160800-
SOUTHEAST KANSAS

CITY           SKY/WX    TMP DP  RH WIND       PRES   REMARKS
CHANUTE        CLOUDY    61  54  77 N13       30.21R
COFFEYVILLE    CLOUDY    66  62  87 NE6       30.18R
HUTCHINSON     CLOUDY    61  52  72 E8        30.24S
NEWTON         MOCLDY    57  46  67 E7        30.26R
PARSONS        CLOUDY    65  59  81 NE8       30.20S
WICHITA INTL   MOCLDY    63  53  70 NE12      30.23R
WICHITA JABRA  CLOUDY    60  53  77 NE12      30.23R
WINFIELD       CLOUDY    67  59  75 NE6       30.21R
$$

KSZ007>012-019>026-033>040-048>060-102>105-160800-
NORTHEAST KANSAS

CITY           SKY/WX    TMP DP  RH WIND       PRES   REMARKS
CONCORDIA      CLEAR     46  45  96 SE3       30.27S
EMPORIA        CLOUDY    53  51  93 NE6       30.24S
LAWRENCE       CLEAR     48  46  93 N3        30.26S
MANHATTAN      CLEAR     52  48  86 NE3       30.27S
OLATHE IND     CLEAR     49  48  97 N6        30.25S
OLATHE EXE     CLEAR     53  50  89 N3        30.24S
SALINA         CLEAR     56  49  77 NE3       30.27R
TOPEKA BILLARD CLEAR     52  49  89 CALM      30.27R
TOPEKA FORBES  CLEAR     51  49  92 N5        30.25S
$$



USA.gov is the U.S. government's official web portal to all federal, state and local government web resources and services.